www.pogodaiklimat.ru

Погода и климат >> Архив погоды >> Гана >> Кумаси


ПОГОДА в Кумаси

  • Прогноз погоды в Кумаси
  • Монитор погоды в Кумаси

АРХИВ ПОГОДЫ в Кумаси

Время (UTC), дата Ветер
(напр.,м/с)
 
Видим.   Явления Облачность Т
(С)
Тd
(С)
f
(%)
Тe
(С)
Тes
(С)
Комфортность P
(гПа)
Po
(гПа)
Тmin
(С)
Tmax
(С)
R
(мм)
R24
(мм)
S
(см)
00 18.03 ЮВ 1 6000 м дымка 5/0
[Ac trans]
+25.4 +23.3 88 +34 +34 очень
душно
1011.8 978.4
03 18.03 ЮВ 1 6000 м дымка 8/0
[Ac trans]
+25.1 +23.5 91 +34 +34 очень
душно
1009.3 976.0
06 18.03 ЮЗ 1 3000 м дымка 9/0 <50 м
[Ac trans]
+24.9 +23.7 93 +34 +34 очень
душно
1010.1 976.7 +24.0
09 18.03 Ю 3 14 км 9/0
[Ac trans]
+27.0 +22.6 77 +36 +40 очень
душно
1012.2 979.0
12 18.03 ЮЗ 5 14 км 6/0
[Ac trans Ci sp]
+31.5 +21.7 56 +40 +48 очень
душно
1010.7 978.0
15 18.03 ЮЗ 3 16 км 3/3 500 м
[Cu med, cong]
+34.3 +20.3 44 +41 +48 опасность
перегрева
1007.5 975.2
18 18.03 Ю 4 14 км 5/4 400 м
[Sc Ac trans]
+32.8 +21.7 52 +41 +41 опасность
перегрева
1007.9 975.4 +35.0
21 18.03 ЮЗ 4 14 км 3/0
[Ci fib]
+29.0 +23.0 70 +39 +39 очень
душно
1010.3 977.4
00 19.03 ЮЗ 5 14 км 6/0
[Ac trans]
+27.0 +24.1 84 +37 +37 очень
душно
1011.1 977.9
03 19.03 ЮЗ 4 14 км 5/4 300 м
[Sc Ac trans]
+25.7 +24.1 91 +36 +36 очень
душно
1009.7 976.4
09 19.03 ЮЗ 4 14 км 9/6 420 м
[Cu med, cong Ac trans]
+27.5 +24.2 82 +38 +40 очень
душно
1011.6 978.5
12 19.03 18 км н/о +31.0 +23.4 64 +42 +52 опасность
перегрева
1010.1 977.4
15 19.03 ЮЗ 3 18 км 8/6 500 м
[Cu med, cong Ac trans]
+32.8 +23.5 58 +44 +47 опасность
перегрева
1006.5 974.1
18 19.03 СЗ 2 70 км 8/4 400 м
[Cu Sc Cs]
+31.1 +24.3 67 +43 +43 опасность
перегрева
1006.5 973.9 +34.9
21 19.03 штиль 0 16 км 8/0
[Cs]
+29.4 +24.3 74 +41 +41 опасность
перегрева
1010.4 977.5
00 20.03 ЮЗ 6 18 км 9/0
[Ac trans]
+26.6 +23.3 82 +36 +36 очень
душно
1011.4 978.2
03 20.03 ЮЗ 3 14 км 4/0
[Ac trans]
+25.6 +23.1 86 +34 +34 очень
душно
1009.7 976.4
06 20.03 Ю 1 10 км 4/0
[Ci sp]
+24.3 +22.0 87 +31 +31 очень
душно
1010.4 977.0 +24.1
09 20.03 СЗ 4 8000 м дымка 6/3 450 м
[Cu med, cong Ac trans]
+26.9 +23.8 83 +37 +41 очень
душно
1012.3 979.1
12 20.03 СЗ 3 14 км 8/6 400 м
[Cu Sc Ac trans]
+30.8 +24.2 68 +43 +48 опасность
перегрева
1010.8 978.0
15 20.03 Ю 2 14 км 6/5 540 м
[Cu med, cong Ci sp]
+33.4 +22.8 54 +43 +49 опасность
перегрева
1008.6 976.2
18 20.03 ЮЗ 3 14 км 8/4 400 м
[Cb cap Ac trans Ci sp]
+32.4 +23.4 59 +43 +43 опасность
перегрева
1006.1 973.7 +34.3
21 20.03 ЮЗ 1 14 км 3/0
[Ac trans]
+30.5 +24.1 69 +42 +42 опасность
перегрева
1009.6 976.8
06 21.03 СЗ 2 12 км 9/6 300 м
[Sc Ac trans]
+25.7 +24.1 91 +36 +36 очень
душно
1010.2 976.9 +24.7
09 21.03 ЮЗ 4 12 км 9/5 330 м
[Sc Ac trans]
+27.4 +23.6 80 +37 +39 очень
душно
1011.8 978.6
12 21.03 ЮЗ 3 12 км 5/5 500 м
[Cu med, cong]
+31.5 +24.1 65 +43 +53 опасность
перегрева
1009.9 977.2
15 21.03 З 4 8000 м дымка 8/8 300 м
[Cb cap]
+32.7 +23.7 59 +44 +45 опасность
перегрева
1006.6 974.2
18 21.03 ЮВ 2 8000 м гроза, ливневой дождь 9/5 300 м
[Cb cap Ac trans]
+27.9 +21.9 70 +36 +36 очень
душно
1007.4 974.4 +34.2 0.0
21 21.03 ЮЗ 1 8000 м слаб. дождь {гроза} 9/9 300 м
[Sc]
+25.0 +23.2 90 +33 +33 очень
душно
1010.8 977.4
00 22.03 ЮЗ 4 8000 м дымка {гроза, дождь} 9/6 300 м
[Sc Cs]
+24.1 +22.7 92 +32 +32 очень
душно
1011.5 978.0 2
06 22.03 штиль 0 6000 м дымка 4/0
[Ac trans]
+23.0 +21.6 92 +31 +31 очень
душно
1009.8 976.2 +22.7 2
09 22.03 ЮВ 6 12 км в посл. час дождь 9/5 360 м
[Sc Ac trans]
+23.0 +21.8 93 +31 +32 очень
душно
1009.8 976.2
12 22.03 СЗ 7 14 км {дождь} 8/0
[Ac trans]
+26.7 +21.0 71 +34 +37 очень
душно
1012.8 979.5 0.5
15 22.03 СЗ 1 16 км 6/0
[Ac trans Ci sp]
+32.0 +21.8 55 +41 +51 опасность
перегрева
1007.7 975.2
18 22.03 ЮВ 2 16 км 8/0
[Ac trans Ci fib]
+29.8 +22.8 66 +39 +39 очень
душно
1008.6 975.8 +33.2 0.5
21 22.03 ЮЗ 1 14 км 9/0
[Ac trans]
+27.5 +21.8 71 +35 +35 очень
душно
1011.2 978.1
00 23.03 ЮЗ 1 14 км 6/0
[Ac trans]
+25.5 +23.2 87 +34 +34 очень
душно
1012.0 978.6
03 23.03 ЮЗ 1 14 км 6/0
[Ac trans Ci fib]
+24.0 +23.1 95 +32 +32 очень
душно
1010.4 976.9
06 23.03 ЮЗ 3 8000 м дымка 8/6 240 м
[Sc Ac trans]
+23.5 +23.5 100 +32 +32 очень
душно
1011.2 977.6 +23.0 0.5
12 23.03 СЗ 4 18 км 5/5 480 м
[Cu med, cong]
+32.0 +22.7 58 +42 +50 опасность
перегрева
1011.4 978.8
18 23.03 ЮЗ 2 18 км 6/0
[Ac trans]
+32.2 +20.5 50 +39 +39 очень
душно
1008.8 976.3 +34.4
21 23.03 Ю 2 16 км 3/0
[Ac trans]
+29.5 +23.2 69 +40 +40 очень
душно
1010.8 977.9
00 24.03 Ю 3 14 км 8/1 300 м
[Sc Ac trans]
+27.0 +24.1 84 +37 +37 очень
душно
1011.6 978.4
03 24.03 ЮЗ 3 14 км 8/8 300 м
[Sc]
+25.5 +23.9 91 +35 +35 очень
душно
1010.2 976.9
06 24.03 ЮЗ 2 10 км 6/6 300 м
[Sc]
+25.0 +24.0 94 +34 +34 очень
душно
1010.7 977.3 +24.8
09 24.03 ЮЗ 4 15 км 6/6 480 м
[Cu med, cong]
+27.8 +23.6 78 +38 +41 очень
душно
1012.5 979.4
15 24.03 ЮЗ 1 18 км 6/6 570 м
[Cu med, cong]
+34.4 +22.2 49 +43 +49 опасность
перегрева
1008.1 975.8
18 24.03 ЮЗ 4 16 км 8/4 400 м
[Cb cap Ac trans Ci sp]
+33.3 +21.8 51 +42 +42 опасность
перегрева
1008.5 976.1 +35.7

 

Местоположение метеостанции Кумаси (Гана): широта 6.72 долгота -1.60 высота над уровнем моря 293 м.

В архиве по умолчанию представлена погода в Кумаси за последнюю неделю. Архивные данные за месяц целиком и за предыдущие месяцы, начиная с января 2011 года, Вы можете получить, выбрав интересующий диапазон дат из раскрывающегося списка и нажав кнопку "Ввод!".


*Определитесь, кто Вы:
робот инопланетянин человек

Внимание! Время в таблицах - всемирное. Для получения местного времени необходимо прибавить поправку, которая равна 1 ч.

Смотрите также архив погоды в соседних городах и на ближайших метеорологических станциях:

Погода в Абетифи (Гана) (94 км)
Погода в Сефви Беквай (Гана) (99 км)
Погода в Суняни (Гана) (105 км)
Погода в Аким Ода (Гана) (111 км)
Погода в Уэнчи (Гана) (127 км)
Погода в Кофоридуа (Гана) (165 км)
Погода в Солтпонде (Гана) (179 км)
Погода в Бондуку (Кот-д'Ивуар) (197 км)
Погода в Аккра (Гана) (201 км)
Погода в Акюсе (Гана) (202 км)

Пояснения к столбцам:

Ветер - указаны скорость ветра в м/с - средняя за 10 мин, порывы в срок и между сроками (в фигурных скобках) и направление, откуда дует ветер: С - северный, СВ - северо-восточный, В - восточный, ЮВ - юго-восточный, Ю - южный, ЮЗ - юго-западный, З - западный, СЗ - северо-западный.
Видимость - горизонтальная дальность видимости в метрах или километрах. При видимости от 1 до 10 км при отсутствии осадков обычно наблюдается дымка, при ухудшении видимости до 1 км и менее - туман. В сухую погоду видимость может ухудшаться дымом, пылью или мглою.
Явления - указаны атмосферные явления, наблюдавшиеся в срок или в последний час перед сроком; фигурными скобками обозначены явления, наблюдавшиеся между сроками (за 1-3 часа до срока); квадратными скобками обозначены град или гололедные отложения с указанием их диаметра в мм.
Облачность - указаны через наклонную черту общая и нижняя облачность в баллах и высота нижней границы облаков в метрах; квадратными скобками обозначены формы облаков: Ci - перистые, Cs - перисто-слоистые, Cc - перисто-кучевые, Ac - высококучевые, As - высокослоистые, Sc - слоисто-кучевые, Ns - слоисто-дождевые, Cu - кучевые, Cb - кучево-дождевые. Подробнее классификацию облаков см. в Атласе облаков (PDF).
T - Температура воздуха - температура, измеренная на высоте 2 м над землей.
Td - Температура точки росы - температура, при понижении до которой содержащийся в воздухе водяной пар достигнет насыщения.
f - Относительная влажность воздуха - влажноcть воздуха, измеренная на высоте 2 м над землей.
Te - Эффективная температура - температура, которую ощущает одетый по сезону человек в тени. Характеристика душности погоды. При расчете учитывается влияние влажности воздуха и скорости ветра на теплоощущения человека.
Tes - Эффективная температура на солнце - температура, которую ощущает человек, с поправкой на солнечный нагрев. Характеристика знойности погоды. Зависит от высоты солнца над горизонтом, облачности и скорости ветра. Ночью, в пасмурную погоду, а также при ветре 12 м/с и более поправка равна нулю.
P - Атмосферное давление - приведенное к уровню моря атмосферное давление.
Po - Атмосферное давление - измеренное на уровне метеостанции атмосферное давление.
Tmin - Минимальная температура - минимум температуры воздуха на высоте 2 м над землей.
Tmax - Максимальная температура - максимум температуры воздуха на высоте 2 м над землей.
R - Количество осадков - Количество выпавших осадков за период времени, мм. При наведении курсора мыши на число - период времени, за который выпало указанное количество осадков.
R24 - Количество осадков - Количество выпавших осадков за 24 часа, мм.
S - Снежный покров - Высота снежного покрова, см. При наведении курсора мыши на число - состояние снежного покрова и степень покрытия местности в баллах.